SCP
1 1 0 0 0 0 0 0 0 0 0 0 0 0 0 0 0 0 0 0 0 0 0 0 0 0 0 0 0 0 0 0 0 0 0 0 0 0 0 0 0 0 0
1 1 0 0 0 0 0 0 0 0 0 0 0 0 0 0 0 0 0 0 0 0 0 0 0 0 0 0 0 0 0 0 0 0 0 0 0 0 0 0 0 0 0
1 1 0 0 0 0 0 0 0 0 0 0 0 0 0 0 0 0 0 0 0 0 0 0 0 0 0 0 0 0 0 -0 -0 0 0 0 0 0 0 0 0 0 0
1 1 1 0 0 0 0 0 0 0 0 0 0 0 0 0 0 0 0 0 0 0 0 0 0 0 0 0 0 0 -0 -0 -0 -0 0 0 0 0 0 0 0 0 0
1 1 1 1 0 0 0 0 0 0 0 0 0 0 0 0 0 0 0 0 0 0 0 0 0 0 0 0 0 -0 -0 -0 -0 0 0 0 0 0 0 0 0 0 0
1 1 1 1 0 0 0 0 0 0 0 0 0 0 0 0 0 0 0 0 0 0 0 0 0 0 0 0 0 -0 -0 -0 0 0 0 0 0 0 0 0 0 0 0
1 1 1 1 1 0 0 0 0 0 0 0 0 0 0 0 0 0 0 0 0 0 0 0 0 0 0 0 0 -0 -0 0 0 0 0 0 0 0 0 0 0 0 0
1 1 1 1 1 1 0 0 0 0 0 0 0 0 0 0 0 0 0 0 0 0 0 0 0 0 0 0 0 -0 -0 0 0 0 0 0 0 0 0 0 0 0 0
1 1 1 1 1 1 1 1 0 0 0 0 0 0 0 0 0 0 0 0 0 0 0 0 0 0 0 0 0 -0 -0 0 0 0 0 0 0 0 0 0 0 0 0
1 1 1 1 1 0 0 0 0 0 0 0 0 0 0 0 0 0 0 0 0 0 0 0 0 0 0 0 0 0 -0 -0 0 0 0 0 0 0 0 0 0 0 0
1 1 1 1 1 0 1 1 0 0 0 0 0 0 0 0 0 0 0 0 0 0 0 0 0 0 0 0 0 0 0 -0 0 0 0 1 1 0 0 0 0 0 0
1 1 1 1 1 1 1 1 1 1 1 1 1 1 1 1 1 1 1 1 1 0 0 0 0 0 0 0 0 0 0 0 0 0 1 1 1 1 1 0 0 0 0
1 1 1 1 1 1 1 1 1 1 1 1 1 1 1 1 1 1 1 1 1 1 0 0 0 0 0 0 0 0 0 0 0 0 1 1 1 1 1 1 0 0 0
2 2 2 2 2 2 2 1 1 1 1 1 1 1 1 1 1 1 1 1 1 1 1 1 1 1 0 0 0 0 0 0 0 0 1 1 1 1 1 1 1 0 0
2 2 2 2 2 2 2 1 1 1 1 1 1 1 1 1 1 1 1 1 1 1 1 1 1 1 1 1 1 1 1 0 0 1 1 1 1 1 1 1 1 0 0
2 2 2 2 1 1 1 1 1 1 1 1 1 1 1 1 1 1 1 1 1 1 1 1 1 1 1 1 1 1 1 1 1 1 1 1 1 1 1 1 1 1 1
2 1 1 1 1 1 1 1 1 1 1 1 1 1 1 1 1 1 1 1 1 1 1 1 1 1 1 1 1 1 1 1 1 1 1 1 1 1 1 1 1 1 1
1 1 1 1 1 1 1 1 1 1 1 1 1 1 1 0 0 1 1 1 1 1 1 1 1 1 1 1 1 1 1 1 1 1 1 1 1 1 1 1 1 1 1
1 1 1 1 1 1 1 0 0 0 0 0 0 0 0 0 0 0 0 1 1 1 1 1 1 1 1 1 1 1 1 1 1 1 1 1 1 1 1 1 1 1 1
1 1 1 1 1 0 0 0 0 0 0 0 0 0 0 0 0 0 0 0 0 0 1 1 1 1 1 1 1 1 1 1 1 1 1 1 1 1 1 1 1 1 1
1 1 1 1 0 0 0 0 0 0 0 0 0 0 0 0 0 0 0 0 0 0 0 0 0 0 1 1 0 0 1 1 1 1 1 1 1 1 1 1 1 1 1
1 1 1 0 0 0 0 0 0 0 0 0 0 0 0 0 0 0 0 0 0 0 0 0 0 0 0 0 0 0 0 0 1 1 1 1 1 1 1 1 1 1 1
0 0 0 0 0 0 0 0 0 0 0 0 0 0 0 0 0 0 0 0 0 0 0 0 0 0 0 0 0 0 0 0 0 1 1 1 1 1 1 1 1 1 1
0 0 0 0 0 0 0 0 0 0 0 0 0 0 0 0 0 0 0 0 0 0 0 0 0 0 0 0 0 0 0 0 0 0 0 1 1 1 1 1 1 1 1
0 0 0 0 0 0 0 0 0 0 0 0 0 0 0 0 0 0 0 0 0 0 0 0 0 0 0 0 0 0 0 0 0 0 0 0 0 0 1 1 1 1 1
0 0 0 0 0 0 0 0 0 0 0 0 0 0 0 0 0 0 0 0 0 0 0 0 0 0 0 0 0 0 0 0 0 0 0 0 0 0 0 0 1 1 1
Wind_Speed
17 17 16 15 14 13 12 12 12 12 12 12 11 11 11 12 12 12 12 12 11 11 10 9 9 9 9 9 9 10 10 10 11 12 13 13 13 12 11 13 15 13 16
20 17 16 15 14 13 12 12 12 12 11 11 11 11 11 11 11 11 10 10 10 10 9 9 9 8 8 9 9 9 9 9 10 11 12 12 11 9 8 10 14 11 15
19 17 15 14 14 13 12 12 12 11 11 11 11 10 10 10 9 9 9 9 9 9 9 9 9 8 8 8 8 7 7 7 8 9 9 8 9 10 12 16 17 15 15
19 16 15 15 14 13 12 12 11 11 11 10 10 9 9 9 9 8 8 8 8 8 8 8 8 8 8 7 7 6 5 5 6 6 4 6 8 12 13 15 15 14 14
17 16 16 15 14 13 12 11 11 11 10 10 9 9 9 8 8 8 7 7 7 7 7 7 7 8 7 7 6 5 4 4 4 4 3 7 8 11 13 14 14 14 14
18 17 16 15 14 13 12 11 11 10 10 9 9 8 8 8 7 7 7 6 6 6 6 6 6 7 7 6 5 4 3 3 4 3 5 8 8 11 13 13 13 13 13
18 17 16 15 14 13 12 11 10 10 9 9 9 8 7 7 6 6 6 5 5 5 5 6 6 6 6 5 4 3 2 4 6 1 7 8 9 11 12 12 13 12 12
18 17 15 15 14 12 11 10 10 9 8 8 7 7 6 6 5 5 6 5 5 5 5 5 6 6 5 5 4 3 4 6 4 2 8 9 13 12 12 12 12 12 11
17 16 13 13 12 12 11 10 9 9 8 7 7 6 6 5 5 5 5 6 6 5 5 5 6 6 6 5 5 4 5 6 8 2 8 9 14 13 13 12 12 12 11
14 13 12 12 11 10 10 10 9 9 8 7 7 7 6 6 7 7 7 8 7 7 6 6 6 6 6 7 6 6 6 7 7 2 6 10 16 15 14 13 12 12 11
11 9 9 10 9 9 10 10 9 9 8 7 7 7 7 6 7 7 10 10 10 8 8 7 7 7 7 8 9 8 6 5 6 2 5 15 17 16 15 13 12 12 12
10 8 6 7 6 6 6 7 5 6 6 5 4 5 4 3 2 3 7 10 10 10 9 9 9 8 7 6 9 9 5 8 6 3 8 20 18 17 16 14 13 13 12
9 8 7 6 4 4 4 4 1 1 2 2 2 2 2 1 1 1 1 4 6 8 6 7 8 6 6 4 4 6 7 6 3 2 10 18 17 17 17 15 14 13 13
9 8 8 8 5 5 4 3 2 1 1 1 1 1 1 0 1 1 0 1 2 2 3 3 3 5 5 4 5 6 6 4 1 2 8 18 18 17 17 16 15 15 14
8 8 9 7 6 5 5 3 3 3 2 2 1 1 1 1 1 1 1 1 2 2 2 2 3 3 4 4 4 4 4 4 2 2 5 16 18 17 17 17 16 16 16
9 9 8 8 6 5 3 3 2 2 2 2 1 1 1 1 1 1 2 2 2 2 1 2 3 3 4 4 4 4 4 4 3 3 5 10 15 16 17 17 18 17 17
10 8 7 7 6 5 4 3 2 2 1 1 1 1 2 2 2 2 2 2 2 2 2 2 3 2 4 5 5 5 5 6 5 4 4 5 8 14 17 17 18 18 18
10 8 7 7 6 5 4 3 2 2 2 1 1 1 2 2 2 2 2 1 1 2 2 2 2 3 3 4 4 5 5 5 6 6 5 5 5 7 12 18 18 18 19
9 7 7 6 5 4 3 2 1 1 1 0 1 2 2 2 2 2 2 2 2 2 2 3 1 2 3 4 4 5 5 5 6 7 7 7 6 6 6 13 18 18 19
8 7 6 6 5 3 3 2 1 1 1 0 1 2 2 2 3 3 3 2 2 2 1 2 2 2 3 4 6 6 4 5 5 6 7 7 7 8 8 9 10 13 19
7 6 6 5 4 3 3 3 2 2 2 1 2 4 3 3 3 3 3 3 2 2 2 2 2 3 3 3 3 4 5 6 6 6 6 6 7 8 8 8 7 8 10
6 6 6 5 5 5 4 3 2 2 3 1 3 2 3 3 3 3 3 3 3 3 3 3 2 2 3 2 2 2 3 3 5 7 6 7 7 6 8 10 8 9 8
5 5 6 5 5 5 5 4 4 3 3 3 3 2 2 3 3 3 3 3 3 4 3 3 3 3 3 3 2 2 2 2 2 4 7 7 6 6 6 7 10 11 11
5 6 6 5 4 4 5 5 6 4 4 4 3 2 3 3 3 2 2 3 3 4 4 4 3 3 4 4 3 3 3 2 2 3 2 4 6 6 6 7 9 9 10
5 5 5 5 4 4 4 4 5 6 5 5 5 4 4 4 3 2 1 2 3 3 4 4 4 4 3 4 3 3 3 3 4 3 4 3 2 3 5 6 5 6 8
4 4 5 4 3 3 3 4 4 5 5 6 5 5 4 3 2 2 3 3 3 3 4 4 4 4 4 4 4 4 3 3 3 3 4 3 3 3 3 3 4 4 6
Wind_Direction
116 123 126 124 125 127 130 131 130 127 123 119 115 111 107 105 103 101 98 97 98 99 99 99 96 92 91 87 85 87 90 91 93 95 96 97 99 101 106 112 107 101 104
117 122 124 123 125 127 129 132 132 130 127 125 122 119 116 113 110 108 106 103 101 99 97 95 92 92 94 92 93 95 99 103 106 110 110 105 101 99 105 108 101 108 109
117 124 125 123 124 126 127 130 132 132 132 129 127 125 123 121 118 115 113 109 105 102 99 95 92 92 96 96 98 103 110 118 124 133 140 123 108 99 99 103 107 112 111
121 129 125 125 124 124 126 129 131 132 133 132 131 130 129 127 125 121 119 116 112 108 104 100 97 97 100 101 104 111 121 136 150 164 171 124 116 107 108 111 113 114 113
123 120 121 126 124 123 124 127 130 132 133 134 134 135 134 133 131 128 126 124 121 115 110 106 104 104 105 107 110 120 138 165 188 208 108 99 101 118 118 117 118 117 116
121 119 125 126 125 125 126 127 130 133 136 138 139 139 138 139 140 139 137 135 132 125 119 115 114 113 114 114 119 134 172 216 240 200 127 117 116 126 126 125 123 121 120
120 122 127 128 128 129 131 132 133 134 137 139 142 143 146 149 152 149 148 147 146 139 133 129 129 127 126 126 133 159 220 261 260 160 123 117 122 130 132 132 129 128 127
118 120 126 130 131 133 135 137 137 138 141 143 147 150 155 160 164 168 167 163 158 152 150 148 146 146 144 147 157 194 249 281 275 167 126 124 135 136 137 138 135 135 134
118 125 135 138 138 140 141 145 146 149 151 155 157 162 171 179 184 189 186 181 176 170 168 168 167 166 164 168 181 214 257 282 292 250 133 131 142 142 145 145 144 143 143
117 124 137 142 145 151 152 156 159 159 162 167 173 178 188 200 207 207 202 195 192 188 188 189 188 184 183 187 197 216 246 275 263 218 129 143 148 149 151 153 153 153 152
110 119 133 136 148 158 157 158 165 170 175 180 189 195 202 217 212 203 216 194 194 198 200 201 200 197 197 202 207 215 233 249 245 176 127 147 154 155 157 161 162 162 161
113 114 113 123 135 145 140 140 171 177 170 196 189 192 207 232 245 227 189 186 195 202 208 209 208 205 213 210 205 209 226 234 248 175 144 154 158 160 162 167 170 171 170
104 96 95 92 91 103 107 132 143 142 143 193 186 205 223 260 282 301 154 183 198 205 213 205 204 214 215 223 187 195 227 239 224 171 151 160 163 165 168 172 177 178 178
88 88 78 75 69 60 67 83 102 84 98 109 104 245 262 272 303 308 286 239 221 215 213 209 209 216 225 229 212 205 221 237 236 125 160 166 169 170 172 177 182 185 185
85 82 74 71 63 56 49 32 63 65 66 70 76 26 331 280 264 270 268 271 265 245 220 218 230 233 229 232 240 233 244 248 256 173 168 176 175 174 176 182 187 191 192
78 76 74 68 67 59 52 39 44 53 62 49 56 19 333 323 339 304 273 262 271 266 252 230 226 223 228 224 227 239 247 255 241 204 174 183 183 182 182 186 192 196 197
81 75 80 83 67 62 51 29 42 37 52 40 34 8 15 358 345 318 287 275 279 280 265 253 249 233 230 224 220 225 226 237 241 234 205 181 189 197 193 193 195 198 200
80 75 64 66 66 61 56 37 33 18 30 13 16 44 35 353 327 304 286 285 292 279 267 258 246 245 249 238 226 225 224 222 226 229 231 217 198 201 204 203 200 200 202
85 82 78 71 61 52 54 42 35 32 34 7 49 63 35 344 332 313 297 295 278 259 250 264 256 260 264 260 251 233 228 226 216 223 222 224 215 204 199 205 205 203 205
94 85 79 74 57 39 46 14 4 2 343 343 90 79 45 5 1 339 299 331 309 280 271 267 274 259 255 254 259 257 238 230 219 221 224 222 215 212 211 210 201 208 210
95 90 80 64 50 33 34 1 358 2 347 345 90 77 49 19 8 330 333 336 325 316 307 292 281 274 256 242 250 264 249 232 221 218 221 225 219 214 212 211 198 199 207
105 98 88 64 41 29 27 340 338 347 317 349 50 64 40 16 353 334 12 335 336 324 300 294 293 284 284 261 246 268 271 249 234 228 216 219 222 214 215 217 210 206 207
110 96 83 64 42 28 2 354 3 338 325 24 13 28 26 348 330 334 334 330 333 318 315 322 294 292 291 288 240 236 266 268 289 238 222 218 214 212 215 217 216 211 210
118 104 95 80 53 28 7 13 352 346 357 355 355 3 357 326 308 309 321 323 325 317 321 311 345 327 305 295 285 243 245 267 276 292 257 229 218 214 216 227 226 215 210
115 112 100 87 62 36 8 7 358 1 350 347 346 339 331 300 288 302 308 325 325 307 322 333 331 320 309 300 303 297 280 266 246 255 278 276 253 233 220 222 229 223 213
113 100 94 92 68 30 4 9 5 353 340 326 320 321 325 320 326 5 2 16 333 326 329 317 313 299 292 296 300 295 287 271 263 254 265 272 263 250 244 233 227 229 220